Back to catalog

NIMBUS 2 DEB

AliveLEO
NORAD 26669·DEBRIS·🇺🇸 United States

Launched May 15, 1966 from Vandenberg Space Force Base

Loading…

Next Passes (next 24 hours)

TLE

FreshSource: Space-Track

Epoch: Sep 14, 2026, 02:25 UTC

1 26669U 66040J   26257.10120226  .00003771  00000-0  31082-2 0  9995
2 26669 100.1429 313.3617 0029437 300.2503  90.1338 13.89621270302200

Track NIMBUS 2 DEB in real time with AllMySat

Download on the App Store